Location: Wanzleben
(52.0609°N, 11.4408°E)
Time: 03:00:25
(UTC+00:00)

Cosmos 2251 Rocket - Pass Details

Date: 18 September 2020
Orbit: 765 x 792 km, 74.0° (Epoch: 22 October)

Event Time Altitude Azimuth Distance (km) Brightness Sun altitude
Rises 20:05:03 0° 336° (NNW) 3,304 7.8 -24.1°
Reaches altitude 10° 20:07:34 10° 343° (NNW) 2,370 6.8 -24.4°
Maximum altitude 20:12:44 44° 56° (NE) 1,081 4.1 -25.1°
Enters shadow 20:12:50 44° 59° (ENE) 1,081 4.1 -25.1°
